CZ-4C DEB, 43266

Orbit data source: Space-Track

CZ-4C DEB, 43266 is space debris in SSO originally from a launch on Sat, 31 Mar 2018 UTC launched from the Taiyaun Space Center, China (TSC). Debris objects in space refer to the collection of defunct objects orbiting the Earth. Examples of debris include non-operational satellites, rocket bodies, and fragments generated from explosions, collisions, or faulty payload assembly.

Loading next visibility...
CZ-4C DEB details
Identifier
43266, 2018-031H
Orbit
SSO
Last TLE update15 hours ago
Origin
Flag of CNCNSA (CN / PRC)
ManufacturerUnknown
MissionSpacecraft
Bus & MotorUnknown
MassUnknown
Launch date (UTC)
2018-03-31 (7 years ago)
Launch vehicleUnknown
Launch site
Taiyaun Space Center, China (TSC)
Object type
Payload
Rocket body
Debris
Shape & HBRUnknown
Radar Cross SectionSmall (<0.1 m²)

Expand to show TLE details & history

TLE from 15 hours ago
0 CZ-4C DEB
1 43266U 18031H   24360.88514091  .00017541  00000-0  13516-2 0  9991
2 43266  98.1150 138.3288 0025998 311.2816  48.6168 15.01430249365573
Epoch: 2024-12-25T21:14Z
Definitive object data (Epoch: 2024-12-25T21:14:36.174Z)
Latitude-0.00004°
Longitude84.80561°
Altitude553.624 km
Speed7.591 km/s
True Right ascension09h 13m 18s
True Declination0° 00' 00"
Sunlit
Object was in full shadow at TLE epoch
Visualization TLE readout
Latitude24.97455°
Longitude81.64991°
Altitude561.126 km
Speed7.585 km/s
Apparent Right ascension05h 39m 08s
Apparent Declination-19° 14' 47"
Sunlit
Object is in full shadow
Visualization observer readout
Local Sidereal Time11:06:22
Azimuth250.055° W
Elevation-6.221°
Doppler factor1
Orbital elements
Apogee altitude577.544 km
Perigee altitude541.471 km
Semi-major axis6,937.644 km
Eccentricity0.0025998
Inclination98.115°
RAAN138.3288°
Arg. of periapsis311.2816°
True anomaly48.84081°
Mean anomaly48.6168°
Eccentric anomaly48.72876°
Mean motion3.756 °/min
BSTAR0.0013516
Orbital period95.85 mins
Loading maneuver chart data...
Loading historical data...
Loading historical data...
Loading historical data...
Loading historical data...
Loading historical data...
Loading historical data...
Loading historical data...

CZ-4C DEB Visibility forecast

Observer location: undefined°, undefined

Span
Click to sort rows by Start time (UTC) header in descending order
Start Az.
Max El. time (UTC)
Max El. Az.
Max El.
End time (UTC)
End Az.
7 mins2024-12-26 21:47:58.706Z30.213° NE2024-12-26 21:51:58.706Z110.606° ESE31.292°2024-12-26 21:54:58.706Z164.873° S
4 mins2024-12-27 08:35:58.706Z97.705° ESE2024-12-27 08:36:58.706Z76.944° E21.076°2024-12-27 08:39:58.706Z21.149° NNE
5 mins2024-12-27 10:09:58.706Z219.242° SW2024-12-27 10:11:58.706Z259.395° W23.081°2024-12-27 10:14:58.706Z315.839° NNW
|